www.pogodaiklimat.ru

Погода и климат >> Архив погоды >> Сирия >> Латакия


ПОГОДА в Латакии

  • Прогноз погоды в Латакии
  • Монитор погоды в Латакии

АРХИВ ПОГОДЫ в Латакии

Время (UTC), дата Ветер
(напр.,м/с)
 
Видим.   Явления Облачность Т
(С)
Тd
(С)
f
(%)
Тe
(С)
Тes
(С)
Комфортность P
(гПа)
Po
(гПа)
Тmin
(С)
Tmax
(С)
R
(мм)
R24
(мм)
S
(см)
18 16.01 штиль 0 15 км гроза с градом 9/9 600 м
[Cb cap]
+8.6 1003.5 1004.0 28
21 16.01 штиль 0 15 км 8/8 900 м
[Cu Sc]
+8.4 +6.2 86 +8 +8 1004.7 1005.0
03 17.01 СЗ 7 15 км 3/3 900 м
[Cu med, cong]
+10.0 +1.3 55 +7 +7 1008.7 1009.0
06 17.01 С 5 15 км 6/6 900 м
[Cu Sc]
+10.0 0.0 50 +7 +8 1012.9 1013.0 +7.8
09 17.01 СЗ 7 15 км 3/3 900 м
[Cu med, cong]
+11.0 -3.4 36 +8 +9 1016.4 1016.0
12 17.01 З 3 15 км 1/1 900 м
[Cu med, cong]
+11.6 0.0 45 +10 +13 1017.1 1017.0
18 17.01 В 2 15 км 5/5 900 м
[Cu med, cong]
+8.0 0.0 57 +6 +6 1018.4 1018.0 +12.2
21 17.01 В 2 15 км 5/5 900 м
[Cu med, cong]
+8.0 0.0 57 +6 +6 1018.4 1018.0 +12.2
00 18.01 В 2 15 км ясно +5.6 +3.2 85 +3 +3 1020.3 1020.0
03 18.01 В 2 15 км ясно +5.6 +3.2 85 +3 +3 1020.3 1020.0
09 18.01 штиль 0 15 км ясно +13.2 +0.9 43 +13 +22 1021.9 1022.0
12 18.01 З 1 15 км ясно +13.2 0.0 40 +14 +18 1021.1 1021.0
15 18.01 штиль 0 15 км ясно +11.4 +0.6 47 +11 +11 1021.4 1021.0
18 18.01 штиль 0 15 км ясно +7.2 0.0 60 +7 +7 1022.2 1022.0 +13.4
00 19.01 штиль 0 15 км ясно +4.4 0.0 73 +4 +4 1022.9 1023.0
03 19.01 штиль 0 15 км ясно +3.6 0.0 77 +3 +3 1023.3 1023.0
06 19.01 штиль 0 15 км ясно +5.4 0.0 68 +5 +7 1022.9 1023.0 +3.6
09 19.01 штиль 0 15 км ясно +18.0 +1.9 34 +18 +27 996.0
12 19.01 З 1 15 км 8/0
[Ci sp]
+14.8 0.0 36 +16 +19 1022.2 1022.0
15 19.01 штиль 0 15 км 3/0
[Ci sp]
+12.4 +2.8 52 +12 +12 1021.7 1022.0
18 19.01 штиль 0 15 км 4/0
[Ci fib]
+9.4 0.0 52 +9 +9 1022.3 1022.0 +16.0
21 19.01 штиль 0 15 км 6/0
[Ci sp]
+7.4 +3.2 75 +7 +7 1022.9 1023.0
00 20.01 С 1 15 км 4/0
[Ac und]
+7.8 0.0 58 +7 +7 1022.6 1023.0
03 20.01 С 1 15 км 3/0
[Ci fib]
+7.0 +2.2 71 +6 +6 1022.6 1023.0
06 20.01 С 1 15 км ясно +7.4 0.0 59 +7 +9 1023.1 1023.0 +6.8
12 20.01 С 1 15 км 8/0
[Ci sp]
+13.9 0.0 38 +15 +19 1020.7 1021.0
15 20.01 С 2 15 км 9/1 900 м
[Sc diur, vesp Ci sp]
+11.8 +1.4 49 +11 +11 1020.5 1021.0
18 20.01 штиль 0 15 км 6/0
[Ac trans]
+10.3 0.0 49 +10 +10 1020.8 1021.0 +15.0
21 20.01 С 1 15 км 9/0
[Ac trans]
+9.8 +2.7 61 +10 +10 1020.8 1021.0
00 21.01 С 3 15 км 6/0
[Ci sp]
+9.9 0.0 50 +8 +8 1019.2 1019.0
03 21.01 СВ 3 15 км 8/0
[Ac trans]
+8.7 +1.5 61 +7 +7 1018.6 1019.0
06 21.01 СВ 2 15 км 9/0
[Ac trans]
+9.4 0.0 52 +8 +9 1019.2 1019.0 +8.4
18 21.01 СВ 3 15 км 5/0
[Ac trans Ci fib]
+10.4 +3.2 61 +9 +9 1018.3 1018.0 +16.7
21 21.01 С 3 15 км 5/0
[Ac trans Ci fib]
+9.6 +3.1 64 +8 +8 1018.5 1019.0
03 22.01 С 4 15 км 3/0
[Ac trans]
+9.8 +0.3 52 +7 +7 1016.6 1017.0
09 22.01 СВ 4 15 км 4/0
[Ci fib]
+14.4 +3.4 48 +13 +18 1017.1 1017.0
12 22.01 С 2 15 км 4/0
[Ci fib]
+16.8 0.0 32 +17 +21 1016.1 1016.0
15 22.01 С 1 15 км 4/0
[Ci fib]
+13.2 +5.4 59 +14 +14 1016.6 1017.0
18 22.01 СВ 1 15 км ясно +10.4 0.0 48 +10 +10 1017.7 1018.0 +18.0
21 22.01 С 1 15 км ясно +10.0 +3.5 64 +10 +10 1018.0 1018.0
00 23.01 С 2 15 км ясно +9.2 0.0 53 +8 +8 1018.0 1018.0
03 23.01 СВ 4 15 км ясно +8.8 +3.3 68 +6 +6 1017.6 1018.0
06 23.01 СВ 4 15 км ясно +9.8 0.0 50 +8 +9 1018.2 1018.0 +8.4
09 23.01 штиль 0 15 км ясно +16.4 +7.1 54 +16 +26 1018.2 1018.0
12 23.01 С 1 15 км ясно +18.0 0.0 30 +19 +24 1016.3 1016.0

 

Местоположение метеостанции Латакия (Сирия): широта 35.53 долгота 35.77 высота над уровнем моря 7 м.

В архиве по умолчанию представлена погода в Латакии за последнюю неделю. Архивные данные за месяц целиком и за предыдущие месяцы, начиная с января 2011 года, Вы можете получить, выбрав интересующий диапазон дат из раскрывающегося списка и нажав кнопку "Ввод!".


*Определитесь, кто Вы:
робот инопланетянин человек

Внимание! Время в таблицах - всемирное. Для получения местного времени необходимо прибавить поправку, которая равна 2 ч.

Смотрите также архив погоды в соседних городах и на ближайших метеорологических станциях:

Погода в Аэропорту Басиля Эль-Асада (Сирия) (20 км)
Погода в Сафире (Сирия) (85 км)
Погода в Хаме (Сирия) (100 км)
Погода в Триполи (Ливан) (121 км)
Погода в Искендеруне (Турция) (122 км)
Погода в Ризокарпасо (Кипр) (126 км)
Погода в Алеппо (Сирия) (148 км)
Погода в Гиалусе (Кипр) (158 км)
Погода в Инджирлике (Турция) (166 км)
Погода в Адане (Турция) (167 км)

Пояснения к столбцам:

Ветер - указаны скорость ветра в м/с - средняя за 10 мин, порывы в срок и между сроками (в фигурных скобках) и направление, откуда дует ветер: С - северный, СВ - северо-восточный, В - восточный, ЮВ - юго-восточный, Ю - южный, ЮЗ - юго-западный, З - западный, СЗ - северо-западный.
Видимость - горизонтальная дальность видимости в метрах или километрах. При видимости от 1 до 10 км при отсутствии осадков обычно наблюдается дымка, при ухудшении видимости до 1 км и менее - туман. В сухую погоду видимость может ухудшаться дымом, пылью или мглою.
Явления - указаны атмосферные явления, наблюдавшиеся в срок или в последний час перед сроком; фигурными скобками обозначены явления, наблюдавшиеся между сроками (за 1-3 часа до срока); квадратными скобками обозначены град или гололедные отложения с указанием их диаметра в мм.
Облачность - указаны через наклонную черту общая и нижняя облачность в баллах и высота нижней границы облаков в метрах; квадратными скобками обозначены формы облаков: Ci - перистые, Cs - перисто-слоистые, Cc - перисто-кучевые, Ac - высококучевые, As - высокослоистые, Sc - слоисто-кучевые, Ns - слоисто-дождевые, Cu - кучевые, Cb - кучево-дождевые. Подробнее классификацию облаков см. в Атласе облаков (PDF).
T - Температура воздуха - температура, измеренная на высоте 2 м над землей.
Td - Температура точки росы - температура, при понижении до которой содержащийся в воздухе водяной пар достигнет насыщения.
f - Относительная влажность воздуха - влажноcть воздуха, измеренная на высоте 2 м над землей.
Te - Эффективная температура - температура, которую ощущает одетый по сезону человек в тени. Характеристика душности погоды. При расчете учитывается влияние влажности воздуха и скорости ветра на теплоощущения человека.
Tes - Эффективная температура на солнце - температура, которую ощущает человек, с поправкой на солнечный нагрев. Характеристика знойности погоды. Зависит от высоты солнца над горизонтом, облачности и скорости ветра. Ночью, в пасмурную погоду, а также при ветре 12 м/с и более поправка равна нулю.
P - Атмосферное давление - приведенное к уровню моря атмосферное давление.
Po - Атмосферное давление - измеренное на уровне метеостанции атмосферное давление.
Tmin - Минимальная температура - минимум температуры воздуха на высоте 2 м над землей.
Tmax - Максимальная температура - максимум температуры воздуха на высоте 2 м над землей.
R - Количество осадков - Количество выпавших осадков за период времени, мм. При наведении курсора мыши на число - период времени, за который выпало указанное количество осадков.
R24 - Количество осадков - Количество выпавших осадков за 24 часа, мм.
S - Снежный покров - Высота снежного покрова, см. При наведении курсора мыши на число - состояние снежного покрова и степень покрытия местности в баллах.